Regional Weather Roundup
Issued by NWS

Home | Current Version | Previous Version | Text Only | Print | Product List | Glossary Off
Versions: 1 2 3 4 5 6 7 8 9 10 11 12 13 14 15 16 17 18 19 20 21 22 23 24 25 26 27 28 29 30 31 32 33 34 35 36 37 38 39 40 41 42 43 44 45 46 47 48 49 50

000
ASUS43 KBIS 290902
RWRND

NORTH DAKOTA REGIONAL WEATHER ROUNDUP
NATIONAL WEATHER SERVICE BISMARCK ND
400 AM CDT SAT AUG 29 2015

NOTE: "FAIR" INDICATES FEW OR NO CLOUDS BELOW 12,000 FEET WITH NO
SIGNIFICANT WEATHER AND/OR OBSTRUCTIONS TO VISIBILITY.


NDZ001>003-009>011-017-291000-
NORTHWEST NORTH DAKOTA

CITY           SKY/WX    TMP DP  RH WIND       PRES   REMARKS
WILLISTON      CLOUDY    55  48  77 CALM      29.92S HAZE
MINOT          CLOUDY    63  55  75 SW10      29.88R HAZE
MINOT AFB      CLEAR     58  57  97 CALM      29.87R
$$

NDZ018>021-031>035-040>046-291000-
SOUTHWEST NORTH DAKOTA

CITY           SKY/WX    TMP DP  RH WIND       PRES   REMARKS
BISMARCK       CLEAR     60  60 100 CALM      29.92R
DICKINSON      CLOUDY    61  47  59 W3        29.96S HAZE
GARRISON         N/A     58  54  86 CALM      29.91R
HETTINGER ARPT CLOUDY    50  46  86 NW3       30.01S FOG
$$

NDZ004>008-012>016-024-026-027-054-291000-
NORTHEAST NORTH DAKOTA

CITY           SKY/WX    TMP DP  RH WIND       PRES   REMARKS
GRAND FORKS    CLEAR     64  63  96 SE6       29.88R
GRND FRKS AFB  FOG       60  60  98 S5        29.88S VSB 1
DEVILS LAKE    CLEAR     61  55  82 CALM      29.88S
$$

NDZ022-023-025-028>030-036>039-047>053-291000-
SOUTHEAST NORTH DAKOTA

CITY           SKY/WX    TMP DP  RH WIND       PRES   REMARKS
FARGO          CLEAR     65  61  87 S12       29.92S
JAMESTOWN      CLEAR     64  62  93 S6        29.90S
$$




USA.gov is the U.S. government's official web portal to all federal, state and local government web resources and services.